Waarnemingen

Advertentie
Mijn weer
Pau, Frankrijk (7610): temperatuur & dauwpunt: 27.11.2020 23:00:00 - 03.12.2020 23:00:00 (CET)Pau, Frankrijk (7610): temperatuur 5cm: 27.11.2020 23:00:00 - 03.12.2020 23:00:00 (CET)Pau, Frankrijk (7610): temperatuur -20cm & temperatuur -100cm: 27.11.2020 23:00:00 - 03.12.2020 23:00:00 (CET)Pau, Frankrijk (7610): windsnelheid & windstoten: 27.11.2020 23:00:00 - 03.12.2020 23:00:00 (CET)Pau, Frankrijk (7610): windrichting: 27.11.2020 23:00:00 - 03.12.2020 23:00:00 (CET)Pau, Frankrijk (7610): luchtdruk: 27.11.2020 23:00:00 - 03.12.2020 23:00:00 (CET)Pau, Frankrijk (7610): zicht: 27.11.2020 23:00:00 - 03.12.2020 23:00:00 (CET)Pau, Frankrijk (7610): Zonneschijnduur: 27.11.2020 23:00:00 - 03.12.2020 23:00:00 (CET)Pau, Frankrijk (7610): neerslag: 27.11.2020 23:00:00 - 03.12.2020 23:00:00 (CET)
Datum & Tijd tt [°C] td [°C] tt 5cm [°C] tt -20cm [°C] tt -100cm [°C] ff [km/u] ff [kn] fx [km/u] fx [kn] dd ppp [hPa] vv [km] sd [min] rr [mm]
03.12.2020 23:00:00 - - - - - - - - - - - - - -
03.12.2020 22:00:00 9,7 4,7 7,5 10,5 13,3 11 6 17 9 ZZO 994,9 27 0 0,0
03.12.2020 21:00:00 10,5 3,7 7,6 10,5 13,3 8 4 39 21 W 995,7 60 0 0,0
03.12.2020 20:00:00 10,9 2,5 8,9 10,5 13,4 8 5 28 15 Z 997,1 60 0 0,0
03.12.2020 19:00:00 11,0 2,3 8,9 10,5 13,3 17 9 32 17 WNW 998,1 60 0 0,0
03.12.2020 18:00:00 11,4 2,4 8,7 10,4 13,3 17 9 30 16 W 999,5 60 0 0,0
03.12.2020 17:00:00 11,6 4,3 9,7 10,4 13,4 19 11 28 15 W 1000,9 19 0 0,0
03.12.2020 16:00:00 12,1 5,0 11,3 10,4 13,3 13 7 32 17 W 1001,5 49 9 0,0
03.12.2020 15:00:00 12,6 4,8 12,4 10,4 13,4 15 8 32 17 W 1002,7 10 21 0,0
03.12.2020 14:00:00 13,3 5,7 14,3 10,4 13,3 19 10 28 15 W 1004,7 32 33 0,0
03.12.2020 13:00:00 13,1 5,7 14,2 10,4 13,3 12 6 22 12 W 1006,4 52 50 0,0
03.12.2020 12:00:00 10,2 4,6 11,9 10,4 13,4 3 2 12 7 ZO 1008,8 55 3 0,0
03.12.2020 11:00:00 8,4 3,4 8,6 10,4 13,4 5 3 9 5 ZO 1010,3 56 0 0,0
03.12.2020 10:00:00 7,0 3,2 5,7 10,5 13,4 3 1 10 5 OZO 1011,4 58 2 0,0
03.12.2020 09:00:00 5,4 2,0 3,1 10,5 13,4 4 2 11 6 OZO 1012,3 38 9 0,0
03.12.2020 08:00:00 4,2 1,4 1,9 10,5 13,4 7 4 10 5 ZO 1013,2 48 0 0,0
03.12.2020 07:00:00 3,9 1,4 2,0 10,6 13,4 5 3 20 11 OZO 1014,1 59 0 0,0
03.12.2020 06:00:00 3,7 1,1 0,6 10,6 13,4 8 4 10 5 OZO 1015,3 50 0 0,0
03.12.2020 05:00:00 3,3 0,9 0,8 10,6 13,4 6 3 10 6 ZO 1016,0 49 0 0,0
03.12.2020 04:00:00 3,8 1,5 1,4 10,7 13,4 6 3 16 9 OZO 1016,8 40 0 0,0
03.12.2020 03:00:00 2,8 1,2 -0,4 10,7 13,4 9 5 11 6 ZO 1018,3 25 0 0,0
03.12.2020 02:00:00 2,9 1,4 -0,5 10,7 13,4 6 3 9 5 OZO 1019,0 17 0 0,0
03.12.2020 01:00:00 3,7 2,1 -0,9 10,8 13,4 6 4 10 5 ZO 1019,4 13 0 0,0
03.12.2020 00:00:00 3,7 1,6 -0,3 10,8 13,4 4 2 13 7 OZO 1019,7 18 0 0,0
02.12.2020 23:00:00 5,5 2,0 3,9 10,8 13,4 6 3 11 6 Z 1020,3 28 0 0,0
02.12.2020 22:00:00 5,7 2,3 4,5 10,8 13,4 3 2 8 4 Z 1021,0 35 0 0,0
02.12.2020 21:00:00 5,7 2,3 4,5 10,8 13,4 5 3 15 8 Z 1021,1 35 0 0,0
02.12.2020 20:00:00 5,8 2,3 2,0 10,8 13,4 9 5 20 11 Z 1021,1 33 0 0,0
02.12.2020 19:00:00 5,2 1,9 1,9 10,8 13,4 8 5 11 6 ZW 1021,2 36 0 0,0
02.12.2020 18:00:00 6,5 2,9 4,7 10,8 13,4 7 4 17 9 WZW 1020,9 51 0 0,0
02.12.2020 17:00:00 6,8 1,9 5,3 10,8 13,4 3 2 21 11 WNW 1020,8 52 21 0,0
02.12.2020 16:00:00 8,4 3,2 8,3 10,8 13,4 14 8 22 12 WZW 1020,5 46 37 0,0
02.12.2020 15:00:00 7,5 2,6 7,0 10,8 13,4 10 5 23 12 WNW 1020,4 58 0 0,0
02.12.2020 14:00:00 7,9 3,4 10,0 10,8 13,4 11 6 19 10 W 1020,7 55 13 0,0
02.12.2020 13:00:00 7,1 4,2 8,4 10,8 13,4 10 5 16 9 ZW 1020,8 20 0 0,0
02.12.2020 12:00:00 6,2 4,8 7,6 10,9 13,4 9 5 21 12 ZW 1021,4 18 0 0,0
02.12.2020 11:00:00 5,5 4,8 5,2 10,9 13,4 9 5 14 8 ZW 1022,0 10 12 0,0
02.12.2020 10:00:00 4,5 4,2 4,5 10,9 13,4 9 5 14 8 NNW 1022,4 6 0 0,0
02.12.2020 09:00:00 4,2 4,1 3,6 10,9 13,4 5 3 10 5 ZW 1021,8 7 0 0,0
02.12.2020 08:00:00 4,0 3,9 3,5 11,0 13,4 5 3 14 8 WZW 1021,6 3,9 0 0,0
02.12.2020 07:00:00 4,2 4,1 4,0 11,0 13,4 7 4 12 6 ZW 1021,5 4,5 0 0,0
02.12.2020 06:00:00 4,1 4,0 4,2 11,1 13,5 2 1 7 4 WZW 1021,5 4,0 0 0,0
02.12.2020 05:00:00 4,1 4,0 3,8 11,1 13,4 3 2 7 4 W 1021,6 0,6 0 0,0
02.12.2020 04:00:00 4,0 3,7 3,1 11,1 13,5 3 1 10 6 N 1021,9 1,9 0 0,0
02.12.2020 03:00:00 4,4 4,1 0,8 11,1 13,4 6 3 14 7 N 1021,9 2,5 0 0,0
02.12.2020 02:00:00 4,1 3,5 0,0 11,1 13,5 9 5 16 9 N 1021,9 5 0 0,0
02.12.2020 01:00:00 5,1 4,4 0,7 11,1 13,4 5 3 8 4 NNW 1022,0 10 0 0,0
02.12.2020 00:00:00 6,0 5,0 2,8 11,1 13,5 5 3 13 7 NNW 1022,1 10 0 0,0
01.12.2020 23:00:00 6,9 6,0 4,5 11,2 13,5 6 4 14 7 NNW 1021,9 12 0 0,0
01.12.2020 22:00:00 7,5 6,4 6,6 11,1 13,4 10 5 21 11 NNO 1021,8 17 0 0,0
01.12.2020 21:00:00 8,1 7,2 7,7 11,1 13,5 12 7 21 11 NNO 1021,3 27 0 0,2
01.12.2020 20:00:00 8,6 7,5 8,0 11,1 13,5 15 8 31 17 NO 1021,1 36 0 0,6
01.12.2020 19:00:00 9,9 8,7 9,0 11,1 13,4 18 10 34 19 WZW 1020,5 2,6 0 1,6
01.12.2020 18:00:00 10,6 7,5 9,4 11,1 13,5 14 8 26 14 ZW 1020,9 23 0 0,0
01.12.2020 17:00:00 10,6 7,7 9,8 11,1 13,5 16 9 24 13 WZW 1021,6 22 0 0,0
01.12.2020 16:00:00 10,8 7,8 10,8 11,1 13,5 11 6 24 13 WZW 1022,3 20 0 0,0
01.12.2020 15:00:00 10,5 7,9 11,1 11,1 13,5 16 8 23 13 ZW 1023,0 18 0 0,0
01.12.2020 14:00:00 9,8 7,2 10,1 11,1 13,5 11 6 24 13 WZW 1024,0 16 0 0,0
01.12.2020 13:00:00 9,5 7,9 9,8 11,1 13,5 13 7 20 11 WZW 1025,0 11 0 0,0
01.12.2020 12:00:00 8,7 7,8 9,4 11,1 13,5 9 5 17 9 ZW 1025,8 7 0 0,0
01.12.2020 11:00:00 8,5 8,2 9,1 11,1 13,5 9 5 15 8 WZW 1026,4 6 0 0,0
01.12.2020 10:00:00 7,8 7,8 7,8 11,1 13,5 10 5 16 9 W 1026,6 4,4 0 0,0
01.12.2020 09:00:00 7,4 7,3 6,6 11,1 13,5 4 2 11 6 WZW 1026,7 2,6 0 0,0
01.12.2020 08:00:00 7,3 7,3 5,2 11,2 13,5 7 4 14 8 WZW 1026,7 2,5 0 0,0
01.12.2020 07:00:00 6,1 6,0 3,1 11,1 13,5 4 2 8 4 ZZW 1026,8 0,3 0 0,0
01.12.2020 06:00:00 6,8 6,7 4,7 11,2 13,5 3 1 14 8 Z 1027,0 0,1 0 0,0
01.12.2020 05:00:00 7,6 7,5 5,2 11,2 13,5 4 2 9 5 W 1027,0 0,3 0 0,0
01.12.2020 04:00:00 7,1 7,0 6,2 11,2 13,5 4 2 8 5 ZZW 1027,3 0,2 0 0,0
01.12.2020 03:00:00 7,2 6,9 2,6 11,2 13,5 7 4 10 5 Z 1027,3 0,1 0 0,0
01.12.2020 02:00:00 7,4 6,8 3,5 11,2 13,5 6 3 12 6 NW 1027,2 2,1 0 0,0
01.12.2020 01:00:00 8,7 7,9 7,9 11,2 13,5 9 5 14 7 WNW 1027,1 3,4 0 0,0
01.12.2020 00:00:00 9,3 8,7 9,0 11,1 13,5 9 5 13 7 W 1027,0 4,7 0 0,0
30.11.2020 23:00:00 9,5 8,7 9,2 11,1 13,5 3 1 15 8 WZW 1026,9 6 0 0,0
30.11.2020 22:00:00 9,7 9,1 9,5 11,1 13,5 10 6 21 11 NNW 1027,0 5 0 0,0
30.11.2020 21:00:00 9,9 9,6 9,8 11,1 13,5 13 7 19 10 WNW 1026,5 1,8 0 0,0
30.11.2020 20:00:00 10,2 9,7 9,9 11,1 13,5 6 4 14 8 W 1026,0 3,3 0 0,0
30.11.2020 19:00:00 10,2 9,7 10,0 11,0 13,5 9 5 15 8 NNW 1026,1 3,8 0 0,0
30.11.2020 18:00:00 10,5 9,9 10,3 11,0 13,5 6 3 10 5 WNW 1025,5 5 0 0,0
30.11.2020 17:00:00 10,8 10,3 10,9 10,9 13,5 6 3 19 10 NW 1025,0 8 0 0,0
30.11.2020 16:00:00 10,3 9,8 11,1 10,9 13,5 6 3 18 10 NW 1024,6 0,8 0 0,0
30.11.2020 15:00:00 10,4 9,8 11,9 10,9 13,5 11 6 19 10 NW 1024,4 3,8 0 0,0
30.11.2020 14:00:00 11,5 10,1 14,1 10,9 13,5 11 6 19 10 NW 1024,4 10 46 0,0
30.11.2020 13:00:00 12,7 10,1 18,4 10,9 13,5 10 6 20 11 NW 1024,2 19 60 0,0
30.11.2020 12:00:00 13,1 9,7 15,1 11,0 13,6 10 6 17 9 W 1024,5 20 60 0,0
30.11.2020 11:00:00 11,8 7,7 9,8 11,0 13,5 4 2 9 5 Z 1024,6 19 60 0,0
30.11.2020 10:00:00 8,7 6,0 3,7 11,0 13,5 6 4 9 5 ZO 1024,4 35 60 0,0
30.11.2020 09:00:00 5,0 4,6 -0,3 11,0 13,5 6 3 9 5 O 1024,2 40 21 0,0
30.11.2020 08:00:00 3,9 3,3 -0,4 11,1 13,6 2 1 7 4 O 1023,5 39 0 0,0
30.11.2020 07:00:00 4,2 3,2 -0,2 11,1 13,6 4 2 11 6 O 1022,9 17 0 0,0
30.11.2020 06:00:00 5,0 4,3 0,1 11,2 13,6 9 5 10 5 ZO 1022,1 36 0 0,0
30.11.2020 05:00:00 4,9 4,0 0,9 11,2 13,6 7 4 10 6 OZO 1021,8 33 0 0,0
30.11.2020 04:00:00 5,2 4,3 1,3 11,3 13,6 8 5 9 5 ZO 1021,8 25 0 0,0
30.11.2020 03:00:00 5,1 4,5 1,0 11,3 13,6 9 5 11 6 OZO 1021,6 22 0 0,0
30.11.2020 02:00:00 5,3 4,6 0,8 11,3 13,5 6 3 9 5 OZO 1021,3 17 0 0,0
30.11.2020 01:00:00 5,5 4,9 0,8 11,4 13,6 8 4 10 5 OZO 1020,9 13 0 0,0
30.11.2020 00:00:00 6,0 5,3 1,2 11,3 13,6 8 4 9 5 ZO 1020,7 13 0 0,0
29.11.2020 23:00:00 6,5 5,6 2,2 11,4 13,6 6 4 10 5 ZO 1020,3 10 0 0,0
29.11.2020 22:00:00 6,7 6,0 2,6 11,3 13,6 5 3 8 4 O 1020,0 10 0 0,0
29.11.2020 21:00:00 7,7 6,8 3,4 11,3 13,6 6 4 10 5 OZO 1019,5 14 0 0,0
29.11.2020 20:00:00 8,7 7,5 3,8 11,3 13,6 4 2 8 5 OZO 1018,8 16 0 0,0
29.11.2020 19:00:00 9,4 7,2 3,8 11,2 13,6 4 2 7 4 ONO 1018,2 48 0 0,0
29.11.2020 18:00:00 11,8 7,9 4,9 11,1 13,6 3 2 5 3 NNO 1017,5 60 0 0,0
29.11.2020 17:00:00 15,8 8,5 9,5 11,1 13,6 4 2 10 5 NNW 1016,8 55 44 0,0
29.11.2020 16:00:00 17,5 7,8 18,1 11,0 13,6 5 3 11 6 WNW 1016,4 59 60 0,0
29.11.2020 15:00:00 17,8 7,5 20,6 11,0 13,6 7 4 14 7 NNW 1016,1 28 60 0,0
29.11.2020 14:00:00 17,3 8,2 22,2 10,9 13,6 10 5 16 8 NW 1016,2 50 60 0,0
29.11.2020 13:00:00 16,8 8,5 23,6 10,9 13,6 4 2 9 5 WNW 1016,2 27 60 0,0
29.11.2020 12:00:00 16,3 8,8 19,8 11,0 13,6 3 2 8 4 ZZO 1016,6 48 60 0,0
29.11.2020 11:00:00 13,6 7,8 12,0 11,0 13,6 5 3 10 5 Z 1016,8 38 60 0,0
29.11.2020 10:00:00 10,8 7,3 5,9 11,0 13,6 8 4 17 9 OZO 1016,1 55 60 0,0
29.11.2020 09:00:00 7,4 6,2 3,8 11,0 13,6 10 5 25 13 OZO 1015,8 32 20 0,0
29.11.2020 08:00:00 5,5 5,1 0,9 11,0 13,6 10 5 17 9 O 1015,2 23 0 0,0
29.11.2020 07:00:00 5,2 4,9 1,0 11,0 13,6 6 3 10 6 OZO 1014,6 11 0 0,0
29.11.2020 06:00:00 5,8 5,4 2,4 11,1 13,7 6 3 12 6 O 1014,0 11 0 0,0
29.11.2020 05:00:00 6,1 5,8 1,5 11,1 13,6 5 3 12 7 O 1013,7 12 0 0,0
29.11.2020 04:00:00 7,1 6,7 1,9 11,1 13,6 12 6 16 9 ZZO 1013,4 15 0 0,0
29.11.2020 03:00:00 6,4 6,1 1,9 11,1 13,6 8 5 12 7 OZO 1013,3 4,7 0 0,0
29.11.2020 02:00:00 7,0 6,6 1,8 11,1 13,6 6 3 11 6 O 1012,9 3,1 0 0,0
29.11.2020 01:00:00 7,9 7,1 2,5 11,1 13,6 7 4 12 6 NO 1012,8 9 0 0,0
29.11.2020 00:00:00 9,6 8,4 4,8 11,1 13,7 6 4 14 7 ZO 1012,1 19 0 0,0
28.11.2020 23:00:00 11,0 9,3 8,6 11,1 13,7 8 5 17 9 OZO 1011,7 28 0 0,0
28.11.2020 22:00:00 11,0 9,6 7,7 11,1 13,7 8 5 14 7 O 1011,3 27 0 0,0
28.11.2020 21:00:00 11,0 9,3 7,7 11,0 13,7 4 2 14 7 O 1010,7 29 0 0,0
28.11.2020 20:00:00 11,5 9,1 8,3 11,0 13,7 8 4 16 9 O 1010,0 55 0 0,0
28.11.2020 19:00:00 12,2 8,8 9,8 11,0 13,7 10 5 19 10 O 1009,4 53 0 0,0
28.11.2020 18:00:00 12,7 8,8 10,4 10,9 13,7 9 5 23 12 O 1008,7 56 0 0,0
28.11.2020 17:00:00 14,0 8,8 12,7 10,9 13,7 14 8 26 14 O 1008,0 52 60 0,0
28.11.2020 16:00:00 14,9 9,5 15,1 10,8 13,7 16 9 27 15 ONO 1007,4 47 34 0,0
28.11.2020 15:00:00 14,5 9,9 14,5 10,8 13,7 11 6 21 11 O 1007,2 58 0 0,0
28.11.2020 14:00:00 14,5 9,1 16,4 10,8 13,7 11 6 22 12 ONO 1007,1 32 19 0,0
28.11.2020 13:00:00 15,1 8,3 15,6 10,8 13,7 9 5 16 8 O 1007,0 53 44 0,0
28.11.2020 12:00:00 13,2 8,9 15,4 10,9 13,7 7 4 21 11 OZO 1007,3 20 56 0,0
28.11.2020 11:00:00 10,1 10,1 10,3 10,9 13,7 5 3 10 5 OZO 1007,5 14 30 0,0
28.11.2020 10:00:00 7,4 7,4 3,0 10,9 13,7 2 1 7 4 ZZO 1007,6 9 16 0,0
28.11.2020 09:00:00 4,9 4,9 0,4 11,0 13,7 2 1 6 4 Z 1007,9 4,2 0 0,0
28.11.2020 08:00:00 4,3 4,3 -0,2 11,0 13,7 4 2 7 4 ZW 1007,6 0,4 0 0,0
28.11.2020 07:00:00 4,2 4,1 -0,1 11,0 13,7 2 1 8 4 O 1007,5 0,3 0 0,0
28.11.2020 06:00:00 5,0 4,9 0,1 11,1 13,7 5 3 12 7 ZO 1007,8 0,2 0 0,0
28.11.2020 05:00:00 5,6 5,3 0,7 11,1 13,7 5 3 9 5 OZO 1007,9 0,2 0 0,0
28.11.2020 04:00:00 6,0 5,7 0,8 11,1 13,7 4 2 11 6 ZZO 1008,2 0,1 0 0,0
28.11.2020 03:00:00 7,2 6,9 2,3 11,1 13,7 6 4 12 7 O 1008,4 0,2 0 0,0
28.11.2020 02:00:00 7,1 6,7 2,3 11,2 13,7 5 3 16 8 OZO 1008,7 0,3 0 0,0
28.11.2020 01:00:00 8,1 7,8 3,7 11,2 13,8 6 3 12 7 O 1009,0 0,3 0 0,0
28.11.2020 00:00:00 8,6 8,5 2,7 11,2 13,8 7 4 11 6 OZO 1009,7 0,4 0 0,0
27.11.2020 23:00:00 8,7 8,4 2,2 11,2 13,8 4 2 11 6 OZO 1009,9 0,2 0 0,0

tt = temperatuur
td = dauwpunt
tt 5cm = temperatuur 5cm
tt -20cm = temperatuur -20cm
tt -100cm = temperatuur -100cm
ff = windsnelheid
fx = windstoten
dd = windrichting
ppp = luchtdruk
vv = zicht
sd = Zonneschijnduur
rr = neerslag

Weerstations in de omgeving